Powrót do katalogu

STARLINK-3556

AktywnyŁącznośćVLEO
NORAD 51877·PAYLOAD·🇺🇸 United States

Wystrzelony Mar 3, 2022 z Cape Canaveral Space Force Station

Loading…

Następne Przeloty (najbliższe 24 godziny)

TLE

ŚwieżeSource: CelesTrak SupGP

Epoka: Sep 15, 2026, 01:38 UTC

1 51877C 22022AB  26258.06854167 -.00034206  00000+0 -10107-2 0  2581
2 51877  53.1570 212.7934 0001271  89.8885 141.9842 15.34406921    11

Śledź STARLINK-3556 w czasie rzeczywistym z AllMySat

Download on the App Store